Location: ??????
(41.3164°N, 22.6615°E)
Time: 13:20:55
(UTC+00:00)

CUBESAT XI-V - Pass Details

Date: 01 July 2022
Orbit: 668 x 690 km, 98.1° (Epoch: 18 August)

Event Time Altitude Azimuth Distance (km) Brightness Sun altitude
Exits shadow 01:18:59 19° 252° (WSW) 1,569 ? -15.0°
Maximum altitude 01:19:49 20° 266° (W) 1,529 ? -14.9°
Drops below altitude 10° 01:23:15 10° 315° (NW) 2,108 ? -14.5°
Sets 01:26:00 0° 332° (NNW) 3,025 ? -14.1°
